Starlink 4659

operational
NORAD ID: 54841 Int'l Des: 2022-177 Owner: SPXS Country: US Constellation: starlink
LEOCIRCULAR

Starlink 4659について

説明を読み込み中...

リアルタイム位置

3D地球を読み込み中...

次回通過

高度履歴

Altitude vs Time

uPlot chart will show altitude changes over time

軌道要素

1 54841U 22177X 25340.52419732 .00002547 00000-0 20351-3 0 9990
2 54841 43.0033 279.3243 0001514 255.0227 105.0448 15.02550807162948
Epoch: Dec 6, 2025 • Age: 17 hours

現在のステータス

高度 571.1 km
速度 7.58 km/s
衛星直下点 -42.48°S, 11.35°E
打ち上げ日 Dec 28, 2022
運用期間 2.9 years
タイプ internet

技術仕様

分類 Payload
質量 305.00 kg
乾燥質量 290.00 kg
総質量 305.00 kg
長さ 0.20 m
直径 2.80 m
スパン 9.00 m
形状 Box + pan
製造者 SPXS
バスタイプ Starlink
フェーズステータス In Orbit
所有者/国 SPXS/US

大規模コンステレーション

Loading constellations...